Home > Weather > Kaiserslautern > Past weeks

Flag for Germany Past Weather in Kaiserslautern, Rhineland-Palatinate, Germany — Yesterday and Last 2 Weeks

Now
54 °F

Clear.


Feels Like: 54 °F
Forecast: 55 / 68 °F
Wind: No wind

Location: Ramstein

Current Time: May 28, 2016 at 2:07:50 AM

Latest Report: May 28, 2016 at 12:58 AM


Visibility: N/A

Pressure: 29.95 "Hg

Humidity: 100%

Dew Point: 54 °F

Location of KaiserslauternLocation

Past Weather in Kaiserslautern — Graph

°F

Kaiserslautern Temperature Yesterday

Maximum temperature yesterday: 72 °F (at 2:04 PM)
Minimum temperature yesterday: 55 °F (at 11:58 PM)
Average temperature yesterday: 63 °F

High & Low Weather Summary for the Past Weeks

 TemperatureHumidityPressure
High75 °F (May 22, 2:58 PM)100% (May 13, 1:03 AM)30.18 "Hg (May 13, 1:03 AM)
Low33 °F (May 15, 5:58 AM)35% (May 22, 1:58 PM)29.49 "Hg (May 13, 1:03 AM)
Average55 °F79%29.95 "Hg
* Reported May 13 1:03 AM — May 28 12:58 AM, Kaiserslautern, Weather by CustomWeather, © 2016

Note: Actual official high and low records may vary slightly from our data, if they occured in-between our weather recording intervals... More about our weather records

Advertising

Kaiserslautern Weather History for the Previous 24 Hours

Scroll right to see more
 ConditionsComfort  
Time TempWeatherWind HumidityBarometerVisibility
12:58 AM
Sat, May 28
54 °FClear.No wind100%29.95 "HgN/A
11:58 PM
Fri, May 27
55 °FClear.No wind100%29.96 "HgN/A
10:58 PM57 °FPassing clouds.No wind100%29.97 "HgN/A
9:58 PM62 °FSunny.No wind87%29.97 "HgN/A
9:03 PM66 °FPassing clouds.8 mph78%29.95 "HgN/A
8:58 PM66 °FPassing clouds.7 mph83%29.95 "HgN/A
7:58 PM70 °FPartly sunny.No wind69%29.93 "HgN/A
7:46 PM70 °FLight rain. Scattered clouds.No wind69%29.94 "HgN/A
6:58 PM72 °FScattered clouds.1 mph61%29.93 "HgN/A
5:58 PM72 °FPassing clouds.2 mph61%29.93 "HgN/A
4:56 PM70 °FPassing clouds.No wind64%29.95 "HgN/A
3:59 PM72 °FScattered clouds.5 mph65%29.95 "HgN/A
3:58 PM71 °FScattered clouds.3 mph66%29.94 "HgN/A
2:59 PM72 °FBroken clouds.2 mph65%29.96 "HgN/A
2:04 PM72 °FScattered clouds.2 mph65%29.97 "HgN/A
1:58 PM70 °FScattered clouds.6 mph69%29.96 "HgN/A
12:58 PM68 °FPassing clouds.No wind77%29.96 "HgN/A
12:04 PM66 °FDrizzle. Partly sunny.No wind88%29.98 "HgN/A
11:58 AM65 °FPartly sunny.No wind89%29.98 "HgN/A
11:48 AM64 °FBroken clouds.No wind94%29.98 "HgN/A
11:04 AM63 °FPartly sunny.No wind100%29.98 "HgN/A
10:58 AM63 °FLight rain. Partly sunny.3 mph99%29.98 "HgN/A
10:04 AM59 °FDrizzle. Partly sunny.5 mph100%29.98 "HgN/A
8:58 AM57 °FLight rain. Partly sunny.8 mph100%29.99 "HgN/A
7:59 AM57 °FLight rain. Passing clouds.3 mph100%29.98 "HgN/A
7:58 AM57 °FPassing clouds.1 mph100%29.97 "HgN/A
6:58 AM57 °FDrizzle. Partly sunny.5 mph100%29.95 "HgN/A
5:59 AM57 °FRain. Fog.No wind100%29.95 "Hg2 mi
4:58 AM56 °FPassing clouds.No wind100%29.93 "HgN/A
3:58 AM56 °FPassing clouds.2 mph100%29.93 "HgN/A
3:04 AM57 °FRain. Passing clouds.3 mph100%29.95 "HgN/A
2:58 AM57 °FHeavy rain. Passing clouds.No wind100%29.94 "HgN/A
Weather by CustomWeather, © 2016

See weather overviewHow to use our weather pages